Regional Weather Roundup
Issued by NWS

Home | Current Version | Previous Version | Graphics & Text | Print | Product List | Glossary On
Versions: 1 2 3 4 5 6 7 8 9 10 11 12 13 14 15 16 17 18 19 20 21 22 23 24 25 26 27 28 29 30 31 32 33 34 35 36 37 38 39 40 41 42 43 44 45 46 47 48 49 50
000
ASUS43 KTOP 242208
RWRKS

WEATHER ROUNDUP FOR KANSAS
NATIONAL WEATHER SERVICE GOODLAND KS
400 PM CST WED DEC 24 2014

NOTE:  "FAIR" INDICATES FEW OR NO CLOUDS BELOW 12,000 FEET WITH NO
SIGNIFICANT WEATHER AND/OR OBSTRUCTIONS TO VISIBILITY.

KSZ001>006-013>018-027>032-041>047-242300-
NORTHWEST KANSAS

CITY           SKY/WX    TMP DP  RH WIND       PRES   REMARKS
GOODLAND       MOSUNNY   42  22  44 SW15      29.73F
HAYS           SUNNY     45  16  31 SW15      29.79F
HILL CITY      SUNNY     46  15  28 SW13      29.76F
RUSSELL        SUNNY     43  20  39 SW14      29.78F
$$

KSZ061>065-074>080-084>089-242300-
SOUTHWEST KANSAS

CITY           SKY/WX    TMP DP  RH WIND       PRES   REMARKS
DODGE CITY     SUNNY     44  16  32 SW13      29.83F
ELKHART          N/A     48  10  21 SW13        N/A
GARDEN CITY    SUNNY     44  16  32 SW14      29.80F
GREAT BEND     SUNNY     43  21  42 W13       29.82F
LIBERAL        SUNNY     46  16  29 SW16      29.84F
PRATT          SUNNY     43  19  39 W14       29.86S
$$

KSZ066>073-081>083-090>101-242300-
SOUTHEAST KANSAS

CITY           SKY/WX    TMP DP  RH WIND       PRES   REMARKS
CHANUTE        CLOUDY    37  30  75 W12       29.87F WCI  29
COFFEYVILLE    CLOUDY    39  30  70 W7        29.90S
HUTCHINSON     SUNNY     45  23  42 W12       29.83F
MEDICINE LODGE   N/A     46  20  35 W9        29.86
NEWTON         SUNNY     41  27  56 W12       29.86S
PARSONS        CLOUDY    39  31  72 NW9       29.90S
WICHITA INTL   MOSUNNY   45  25  45 W10       29.86S
WICHITA JABRA  MOSUNNY   41  28  60 W10G18    29.86S
WICHITA MCCONL SUNNY     44  29  55 W12       29.86F
WINFIELD       MOSUNNY   43  32  65 W13       29.89F
$$

KSZ007>012-019>026-033>040-048>060-102>105-242300-
NORTHEAST KANSAS

CITY           SKY/WX    TMP DP  RH WIND       PRES   REMARKS
CONCORDIA      SUNNY     40  26  57 SW10G16   29.79F WCI  33
EMPORIA        CLOUDY    34  29  82 W8        29.86S
LAWRENCE       CLOUDY    35  29  78 W9        29.85R
MANHATTAN      CLOUDY    35  29  78 SW5       29.84F
MARYSVILLE     CLOUDY    32  28  86 W8        29.81F
OLATHE IND     CLOUDY    34  30  85 W9        29.84R
OLATHE EXE     CLOUDY    35  29  78 W8        29.82S
SALINA         SUNNY     43  25  49 W12       29.83S
TOPEKA BILLARD CLOUDY    37  30  75 W8        29.86R
TOPEKA FORBES  CLOUDY    36  30  79 W12       29.85R WCI  28
$$



USA.gov is the U.S. government's official web portal to all federal, state and local government web resources and services.